Погода в Любимовке

Украина / Херсонская область     46°33′21″N   34°31′47″E
темп.,
°C
ветер,
м/с
пор.,
м/с
влажн.,
%
обл.,
%
осадки,
мм/ч
давл.,
гПа
погр.,
м
13 мая, чт
чт1300:00+8ю22811 0.0 101212
03:00+7ссв11811 0.0 101210
06:00+8св22804 0.0 101317
09:00+15всв335948 0.0 1013511
12:00+20вюв3447100 0.0 10121052
15:00+18юв555467 0.0 1012578
18:00+19вюв564988 0.0 1011601
21:00+13в487618 0.0 1011136
14 мая, пт
пт1400:00+12вюв469168 0.0 100997
03:00+12ю22911 0.0 100913
06:00+12юз1181100 0.0 100910
09:00+19зюз2353100 0.0 1010361
12:00+24ююз4534100 0.0 1010892
15:00+25юз4637100 0.0 10101417
18:00+23юз4648100 0.0 1010802
21:00+16зюз46780 0.0 101194
15 мая, сб
сб1500:00+13зюз347491 0.0 101266
03:00+12з33825 0.0 101338
06:00+13з22821 0.0 101338
09:00+20зюз235789 0.0 1013501
12:00+24ююз3343100 0.0 10131560
15:00+25ююз43380 0.0 10121976
18:00+24юв3244100 0.0 1012899
21:00+17ююв335989 0.0 101231
16 мая, вс
вс1600:00+15всв115863 0.0 101211
03:00+15св2261100 0.0 101117
06:00+14св4667100 0.0 101095
09:00+22всв575345 0.0 1009475
12:00+27в563985 0.0 10071501
15:00+27в6747100 0.1 10051546
18:00+25вюв5958100 0.0 1004687
21:00+18зсз3484100 0.0 100349
17 мая, пн
пн1700:00+17св2287100 0.3 100321
03:00+17юз2388100 0.3 100250
06:00+16з2593100 0.0 1002139
09:00+20зюз457969 0.0 1003656
12:00+24юз665637 0.0 10051386
15:00+23юз7758100 0.8 10061410
18:00+21юз665766 0.2 1007966
21:00+15юз49802 0.2 1009203